IRIDIUM 40

Last updated on Nov. 29, 2017, 12:19 a.m. UTC

1 25041U 97069C   17332.73908314  .00093365  81656-6  67639-3 0  9996
2 25041  86.3795 296.2360 0218559   8.7444 351.7520 15.47670050 52248

Satellite is not in orbit.